Погода в Акиси

Россия / Республика Коми     65°50′22″N   56°45′16″E
темп.,
°C
ветер,
м/с
пор.,
м/с
влажн.,
%
обл.,
%
осадки,
мм/ч
давл.,
гПа
погр.,
м
23 сентября, чт
чт2300:00+1зсз11910 0.0 102910
03:000з11920 0.0 102910
06:000юз11915 0.0 102914
09:00+6юз2369100 0.0 1028313
12:00+8юз2364100 0.0 1027483
15:00+8ю1272100 0.0 102760
18:00+4ю2492100 0.0 102672
21:00+4ююз2496100 0.0 102661
24 сентября, пт
пт2400:00+3ю2296100 0.0 102540
03:00+3ю2396100 0.0 102550
06:00+3ю2394100 0.0 102558
09:00+6ю2478100 0.0 1025255
12:00+9ююв2368100 0.0 1025419
15:00+9ююв257178 0.0 1024409
18:00+4ююв239165 0.0 102455
21:00+3ююв239385 0.0 102460
25 сентября, сб
сб2500:00+3юв24955 0.0 102469
03:00+2юв27957 0.0 1024135
06:00+2ююв298334 0.0 1023190
09:00+8юв495661 0.0 1022324
12:00+11ююв4104934 0.0 1022589
15:00+11ююв495536 0.0 1021610
18:00+8ююв4136795 0.0 1022514
21:00+7ю51469100 0.0 1023650
26 сентября, вс
вс2600:00+7ю41466100 0.0 1023642
03:00+7ююв41267100 0.0 1023524
06:00+6юв31269100 0.0 1024491
09:00+8ююв41261100 0.0 1024678
12:00+10ююв5854100 0.0 1025847
15:00+9ююв4959100 0.0 1026756
18:00+6ю41168100 0.0 1028483
21:00+5ю41367100 0.0 1029529
27 сентября, пн
пн2700:00+4ю3126898 0.0 1030483
03:00+2ююв287840 0.0 1032232
06:00+1ююв2979100 0.0 1033242
09:00+5ю3759100 0.0 1033406
12:00+7ю3650100 0.0 1033654
15:00+7ююз2555100 0.0 1032405
18:00+4ююз2469100 0.0 103291
21:00+3ююз2573100 0.0 1031119